Flag for Brazil Weather past 2 weeks in Joinville, Santa Catarina, Brazil

Now
55 °F

Low clouds.


Feels Like: 53 °F
Forecast: 56 / 70 °F
Wind: 10 mph from Southeast

Location: Curitiba Aeroporto

Current Time: Oct 2, 2014 at 4:07:02 AM

Latest Report: Oct 2, 2014 at 3:00 AM


Visibility: N/A

Pressure: 30.24 "Hg

Humidity: 100%

Dew point: 55 °F

Location of JoinvilleLocation

Historic Weather in Joinville — Graph

°F

Joinville temperature yesterday

Maximum temperature yesterday: 77 °F (at 11:00 AM)
Minimum temperature yesterday: 43 °F (at 3:00 AM)
Average temperature yesterday: 66 °F

Past Weeks' High & Low Weather Summary

 TemperatureHumidityPressure
High77 °F (Sep 30, 2:00 PM)100% (Sep 18, 5:00 AM)30.27 "Hg (Sep 18, 5:00 AM)
Low39 °F (Sep 19, 6:00 AM)43% (Sep 21, 3:00 PM)29.92 "Hg (Sep 19, 5:00 PM)
Average60 °F92%30.10 "Hg
* Reported Sep 17 3:00 AM — Oct 2 3:00 AM, Joinville, Weather by CustomWeather, © 2014

Note: Actual official high and low records may vary slightly from our data, if they occured in-between our weather recording intervals... More about our weather records

Advertising

Joinville weather history for previous 24 hours

 ConditionsComfort  
Time TempWeatherWind HumidityBarometerVisibility
3:00 AM
Oct 2
55 °FLow clouds.10 mph100%30.24 "HgN/A
2:00 AM55 °FMostly cloudy.14 mph100%30.24 "HgN/A
1:00 AM55 °FMostly cloudy.12 mph100%30.24 "HgN/A
12:00 AM57 °FDrizzle. Mostly cloudy.13 mph100%30.24 "Hg4 mi
11:00 PM
Oct 1
57 °FDrizzle. Mostly cloudy.12 mph100%30.24 "Hg4 mi
10:00 PM57 °FDrizzle. Mostly cloudy.9 mph100%30.24 "Hg4 mi
9:00 PM59 °FMostly cloudy.10 mph100%30.21 "Hg5 mi
8:00 PM63 °FPassing clouds.9 mph100%30.18 "HgN/A
7:00 PM64 °FPassing clouds.7 mph100%30.15 "Hg4 mi
6:00 PM70 °FPassing clouds.7 mph88%30.12 "HgN/A
5:00 PM75 °FScattered clouds.8 mph69%30.09 "HgN/A
4:00 PM75 °FBroken clouds.12 mph69%30.09 "HgN/A
3:00 PM75 °FPartly sunny.13 mph65%30.07 "HgN/A
2:00 PM75 °FBroken clouds.12 mph69%30.07 "HgN/A
1:00 PM77 °FPartly sunny.10 mph65%30.07 "HgN/A
12:00 PM77 °FPassing clouds.10 mph65%30.07 "HgN/A
11:00 AM77 °FSunny.10 mph69%30.07 "Hg10 mi
10:00 AM72 °FSunny.14 mph78%30.07 "Hg10 mi
9:00 AM68 °FSunny.13 mph78%30.07 "Hg10 mi
8:00 AM64 °FSunny.8 mph88%30.07 "Hg10 mi
7:00 AM63 °FPassing clouds.9 mph88%30.04 "HgN/A
6:00 AM64 °FBroken clouds.7 mph83%30.01 "HgN/A
5:00 AM63 °FLight rain. Fog.17 mph88%N/A2 mi
4:00 AMN/AThunderstorms.7 mphN/AN/A2 mi
Weather by CustomWeather, © 2014

See weather overviewHow to use our weather pages